Saint Bonnet de Bellac- Haute Vienne - France
Donnes mto: dimanche, 26/02/2012
Date Horaire Temp. E. Hum. E. P.atmo. Pluie Vent Direction Direction Ensoleilleme Solaire P. de rose Temp au vent Rafales
26/02/2012 00:00 9,1 C 87 % 1024,1 hPa 0,0 mm 4,0 km/h (1 Bft) E-NE 67 0 min 0 W/m 7,1 C 9,1 C 4,0 km/h (1 Bft)
26/02/2012 00:10 9,1 C 87 % 1024,1 hPa 0,0 mm 0,0 km/h (0 Bft) NE 45 0 min 0 W/m 7,1 C 9,1 C 0,0 km/h (0 Bft)
26/02/2012 00:20 9,1 C 88 % 1024,0 hPa 0,0 mm 0,0 km/h (0 Bft) E-NE 67 0 min 0 W/m 7,2 C 9,1 C 2,9 km/h (1 Bft)
26/02/2012 00:30 9,1 C 88 % 1024,0 hPa 0,0 mm 1,4 km/h (1 Bft) E-NE 67 0 min 0 W/m 7,2 C 9,1 C 4,0 km/h (1 Bft)
26/02/2012 00:40 9,1 C 88 % 1024,0 hPa 0,0 mm 0,0 km/h (0 Bft) NE 45 0 min 0 W/m 7,2 C 9,1 C 0,0 km/h (0 Bft)
26/02/2012 00:50 8,9 C 88 % 1023,9 hPa 0,0 mm 0,0 km/h (0 Bft) E-NE 67 0 min 0 W/m 7,0 C 8,9 C 0,0 km/h (0 Bft)
26/02/2012 01:00 8,9 C 88 % 1023,8 hPa 0,0 mm 0,0 km/h (0 Bft) NE 45 0 min 0 W/m 7,0 C 8,9 C 0,0 km/h (0 Bft)
26/02/2012 01:10 8,9 C 88 % 1023,8 hPa 0,0 mm 0,4 km/h (0 Bft) NE 45 0 min 0 W/m 7,0 C 8,9 C 3,2 km/h (1 Bft)
26/02/2012 01:20 8,8 C 88 % 1023,8 hPa 0,0 mm 1,4 km/h (1 Bft) N-NE 22 0 min 0 W/m 6,9 C 8,8 C 4,3 km/h (1 Bft)
26/02/2012 01:30 8,8 C 88 % 1023,7 hPa 0,0 mm 1,1 km/h (1 Bft) N-NE 22 0 min 0 W/m 6,9 C 8,8 C 4,0 km/h (1 Bft)
26/02/2012 01:40 8,8 C 88 % 1023,8 hPa 0,0 mm 0,0 km/h (0 Bft) N-NE 22 0 min 0 W/m 6,9 C 8,8 C 0,0 km/h (0 Bft)
26/02/2012 01:50 8,8 C 89 % 1023,8 hPa 0,0 mm 1,8 km/h (1 Bft) N-NE 22 0 min 0 W/m 7,1 C 8,8 C 3,6 km/h (1 Bft)
26/02/2012 02:02 8,8 C 89 % 1023,7 hPa 0,0 mm 0,7 km/h (0 Bft) N-NE 22 0 min 0 W/m 7,1 C 8,8 C 4,0 km/h (1 Bft)
26/02/2012 02:10 8,6 C 89 % 1023,7 hPa 0,0 mm 1,4 km/h (1 Bft) N-NE 22 0 min 0 W/m 6,9 C 8,6 C 4,0 km/h (1 Bft)
26/02/2012 02:20 8,6 C 89 % 1023,6 hPa 0,0 mm 0,0 km/h (0 Bft) N-NE 22 0 min 0 W/m 6,9 C 8,6 C 0,0 km/h (0 Bft)
26/02/2012 02:30 8,5 C 89 % 1023,6 hPa 0,0 mm 1,1 km/h (1 Bft) N-NE 22 0 min 0 W/m 6,8 C 8,5 C 1,4 km/h (1 Bft)
26/02/2012 02:40 8,4 C 89 % 1023,4 hPa 0,0 mm 1,4 km/h (1 Bft) N-NE 22 0 min 0 W/m 6,7 C 8,4 C 1,4 km/h (1 Bft)
26/02/2012 02:50 8,4 C 89 % 1023,5 hPa 0,0 mm 2,2 km/h (1 Bft) N-NE 22 0 min 0 W/m 6,7 C 8,4 C 2,2 km/h (1 Bft)
26/02/2012 03:00 8,4 C 90 % 1023,5 hPa 0,0 mm 0,4 km/h (0 Bft) N-NE 22 0 min 0 W/m 6,9 C 8,4 C 3,2 km/h (1 Bft)
26/02/2012 03:10 8,3 C 90 % 1023,5 hPa 0,0 mm 2,9 km/h (1 Bft) N-NE 22 0 min 0 W/m 6,8 C 8,3 C 4,0 km/h (1 Bft)
26/02/2012 03:20 8,3 C 90 % 1023,5 hPa 0,0 mm 1,4 km/h (1 Bft) N-NE 22 0 min 0 W/m 6,8 C 8,3 C 4,0 km/h (1 Bft)
26/02/2012 03:30 8,3 C 90 % 1023,5 hPa 0,0 mm 3,2 km/h (1 Bft) N-NE 22 0 min 0 W/m 6,8 C 8,3 C 4,3 km/h (1 Bft)
26/02/2012 03:40 8,2 C 91 % 1023,4 hPa 0,0 mm 3,2 km/h (1 Bft) N 360 0 min 0 W/m 6,8 C 8,2 C 6,5 km/h (2 Bft)
26/02/2012 03:50 8,2 C 91 % 1023,3 hPa 0,0 mm 2,2 km/h (1 Bft) N-NE 22 0 min 0 W/m 6,8 C 8,2 C 4,0 km/h (1 Bft)
26/02/2012 04:00 8,2 C 91 % 1023,2 hPa 0,0 mm 2,9 km/h (1 Bft) N 360 0 min 0 W/m 6,8 C 8,2 C 5,8 km/h (2 Bft)
26/02/2012 04:10 8,1 C 91 % 1023,3 hPa 0,0 mm 1,4 km/h (1 Bft) N-NE 22 0 min 0 W/m 6,7 C 8,1 C 4,0 km/h (1 Bft)
26/02/2012 04:20 8,1 C 91 % 1023,2 hPa 0,0 mm 2,2 km/h (1 Bft) N 360 0 min 0 W/m 6,7 C 8,1 C 7,2 km/h (2 Bft)
26/02/2012 04:30 8,1 C 91 % 1023,3 hPa 0,0 mm 2,9 km/h (1 Bft) NE 45 0 min 0 W/m 6,7 C 8,1 C 6,8 km/h (2 Bft)
26/02/2012 04:40 8,1 C 91 % 1023,3 hPa 0,0 mm 3,2 km/h (1 Bft) N-NE 22 0 min 0 W/m 6,7 C 8,1 C 4,3 km/h (1 Bft)
26/02/2012 04:50 8,2 C 91 % 1023,3 hPa 0,0 mm 3,2 km/h (1 Bft) N 360 0 min 0 W/m 6,8 C 8,2 C 6,1 km/h (2 Bft)
26/02/2012 05:00 8,2 C 91 % 1023,3 hPa 0,0 mm 5,0 km/h (1 Bft) N-NE 22 0 min 0 W/m 6,8 C 7,7 C 6,8 km/h (2 Bft)
26/02/2012 05:10 8,1 C 91 % 1023,3 hPa 0,0 mm 7,2 km/h (2 Bft) N-NE 22 0 min 0 W/m 6,7 C 7,0 C 8,6 km/h (2 Bft)
26/02/2012 05:20 8,2 C 92 % 1023,2 hPa 0,0 mm 7,2 km/h (2 Bft) NE 45 0 min 0 W/m 7,0 C 7,1 C 12,2 km/h (2 Bft)
26/02/2012 05:30 8,2 C 92 % 1023,3 hPa 0,0 mm 5,4 km/h (2 Bft) N-NE 22 0 min 0 W/m 7,0 C 7,6 C 8,6 km/h (2 Bft)
26/02/2012 05:40 8,2 C 92 % 1023,4 hPa 0,0 mm 0,7 km/h (0 Bft) N-NE 22 0 min 0 W/m 7,0 C 8,2 C 4,0 km/h (1 Bft)
26/02/2012 05:50 8,1 C 92 % 1023,4 hPa 0,0 mm 1,1 km/h (1 Bft) N-NE 22 0 min 0 W/m 6,9 C 8,1 C 3,6 km/h (1 Bft)
26/02/2012 06:00 8,1 C 92 % 1023,4 hPa 0,0 mm 2,5 km/h (1 Bft) NE 45 0 min 0 W/m 6,9 C 8,1 C 4,0 km/h (1 Bft)
26/02/2012 06:10 8,1 C 92 % 1023,4 hPa 0,0 mm 2,5 km/h (1 Bft) N-NE 22 0 min 0 W/m 6,9 C 8,1 C 4,0 km/h (1 Bft)
26/02/2012 06:20 8,0 C 92 % 1023,4 hPa 0,0 mm 1,1 km/h (1 Bft) N-NE 22 0 min 0 W/m 6,8 C 8,0 C 3,2 km/h (1 Bft)
26/02/2012 06:30 7,9 C 92 % 1023,6 hPa 0,0 mm 5,0 km/h (1 Bft) N-NE 22 0 min 0 W/m 6,7 C 7,4 C 7,6 km/h (2 Bft)
26/02/2012 06:40 7,9 C 92 % 1023,6 hPa 0,0 mm 5,0 km/h (1 Bft) NE 45 0 min 0 W/m 6,7 C 7,4 C 7,9 km/h (2 Bft)
26/02/2012 06:50 7,9 C 92 % 1023,5 hPa 0,0 mm 6,5 km/h (2 Bft) NE 45 0 min 0 W/m 6,7 C 6,9 C 10,4 km/h (2 Bft)
26/02/2012 07:00 7,9 C 92 % 1023,5 hPa 0,0 mm 4,7 km/h (1 Bft) N-NE 22 0 min 0 W/m 6,7 C 7,5 C 8,6 km/h (2 Bft)
26/02/2012 07:10 7,9 C 92 % 1023,6 hPa 0,0 mm 5,0 km/h (1 Bft) N-NE 22 0 min 0 W/m 6,7 C 7,4 C 11,9 km/h (2 Bft)
26/02/2012 07:20 7,9 C 92 % 1023,5 hPa 0,0 mm 6,8 km/h (2 Bft) N-NE 22 0 min 0 W/m 6,7 C 6,8 C 12,2 km/h (2 Bft)
26/02/2012 07:30 7,9 C 92 % 1023,7 hPa 0,0 mm 6,8 km/h (2 Bft) N-NE 22 0 min 0 W/m 6,7 C 6,8 C 9,4 km/h (2 Bft)
26/02/2012 07:40 7,9 C 92 % 1023,6 hPa 0,0 mm 9,4 km/h (2 Bft) N-NE 22 0 min 0 W/m 6,7 C 6,2 C 13,3 km/h (3 Bft)
26/02/2012 07:50 7,8 C 92 % 1023,9 hPa 0,0 mm 3,2 km/h (1 Bft) NE 45 0 min 0 W/m 6,6 C 7,8 C 4,3 km/h (1 Bft)
26/02/2012 08:00 7,8 C 92 % 1023,9 hPa 0,0 mm 5,0 km/h (1 Bft) N-NE 22 2 min 0 W/m 6,6 C 7,3 C 6,8 km/h (2 Bft)
26/02/2012 08:10 7,7 C 92 % 1024,0 hPa 0,0 mm 6,1 km/h (2 Bft) NE 45 2 min 0 W/m 6,5 C 6,8 C 10,8 km/h (2 Bft)
26/02/2012 08:20 7,6 C 92 % 1024,2 hPa 0,0 mm 4,0 km/h (1 Bft) N-NE 22 2 min 0 W/m 6,4 C 7,6 C 5,8 km/h (2 Bft)
26/02/2012 08:30 7,7 C 92 % 1024,2 hPa 0,0 mm 6,1 km/h (2 Bft) NE 45 2 min 0 W/m 6,5 C 6,8 C 8,6 km/h (2 Bft)
26/02/2012 08:40 7,8 C 92 % 1024,3 hPa 0,0 mm 5,8 km/h (2 Bft) N-NE 22 2 min 0 W/m 6,6 C 7,0 C 9,7 km/h (2 Bft)
26/02/2012 08:50 7,8 C 92 % 1024,4 hPa 0,0 mm 4,7 km/h (1 Bft) NE 45 2 min 0 W/m 6,6 C 7,4 C 10,8 km/h (2 Bft)
26/02/2012 09:00 7,8 C 92 % 1024,6 hPa 0,0 mm 5,8 km/h (2 Bft) N-NE 22 2 min 0 W/m 6,6 C 7,0 C 8,6 km/h (2 Bft)
26/02/2012 09:10 7,8 C 91 % 1024,6 hPa 0,0 mm 5,4 km/h (2 Bft) N-NE 22 2 min 0 W/m 6,4 C 7,1 C 9,0 km/h (2 Bft)
26/02/2012 09:20 7,8 C 91 % 1024,7 hPa 0,0 mm 5,0 km/h (1 Bft) NE 45 2 min 0 W/m 6,4 C 7,3 C 7,2 km/h (2 Bft)
26/02/2012 09:30 7,8 C 91 % 1024,8 hPa 0,0 mm 7,6 km/h (2 Bft) N-NE 22 2 min 0 W/m 6,4 C 6,5 C 12,6 km/h (3 Bft)
26/02/2012 09:40 7,8 C 90 % 1024,9 hPa 0,0 mm 8,3 km/h (2 Bft) N-NE 22 2 min 0 W/m 6,3 C 6,4 C 10,1 km/h (2 Bft)
26/02/2012 09:50 7,9 C 89 % 1024,8 hPa 0,0 mm 8,6 km/h (2 Bft) N-NE 22 2 min 0 W/m 6,2 C 6,4 C 11,2 km/h (2 Bft)
26/02/2012 10:00 8,0 C 88 % 1024,8 hPa 0,0 mm 9,4 km/h (2 Bft) N-NE 22 2 min 0 W/m 6,1 C 6,4 C 16,2 km/h (3 Bft)
26/02/2012 10:10 7,9 C 87 % 1025,0 hPa 0,0 mm 11,9 km/h (2 Bft) NE 45 2 min 0 W/m 5,9 C 5,8 C 11,9 km/h (2 Bft)
26/02/2012 10:20 8,1 C 86 % 1025,1 hPa 0,0 mm 10,1 km/h (2 Bft) E-NE 67 2 min 0 W/m 5,9 C 6,3 C 15,1 km/h (3 Bft)
26/02/2012 10:30 8,3 C 86 % 1025,0 hPa 0,0 mm 5,8 km/h (2 Bft) NE 45 2 min 0 W/m 6,1 C 7,6 C 6,1 km/h (2 Bft)
26/02/2012 10:40 8,4 C 85 % 1025,2 hPa 0,0 mm 8,3 km/h (2 Bft) N 360 2 min 0 W/m 6,0 C 7,1 C 8,3 km/h (2 Bft)
26/02/2012 10:50 8,4 C 85 % 1025,2 hPa 0,0 mm 5,0 km/h (1 Bft) N-NE 22 2 min 0 W/m 6,0 C 7,9 C 7,2 km/h (2 Bft)
26/02/2012 11:00 8,5 C 84 % 1025,3 hPa 0,0 mm 8,6 km/h (2 Bft) N-NE 22 2 min 0 W/m 6,0 C 7,1 C 9,0 km/h (2 Bft)
26/02/2012 11:10 8,4 C 84 % 1025,3 hPa 0,0 mm 4,0 km/h (1 Bft) NE 45 2 min 0 W/m 5,9 C 8,4 C 7,2 km/h (2 Bft)
26/02/2012 11:20 8,4 C 83 % 1025,3 hPa 0,0 mm 5,8 km/h (2 Bft) E-NE 67 2 min 0 W/m 5,7 C 7,7 C 8,3 km/h (2 Bft)
26/02/2012 11:30 9,6 C 82 % 1025,6 hPa 0,0 mm 5,8 km/h (2 Bft) N-NE 22 2 min 0 W/m 6,7 C 9,1 C 7,6 km/h (2 Bft)
26/02/2012 11:40 10,6 C 79 % 1025,6 hPa 0,0 mm 2,9 km/h (1 Bft) NE 45 2 min 0 W/m 7,1 C 10,6 C 4,3 km/h (1 Bft)
26/02/2012 11:50 10,3 C 77 % 1025,7 hPa 0,0 mm 6,8 km/h (2 Bft) N-NE 22 2 min 0 W/m 6,4 C 10,3 C 10,8 km/h (2 Bft)
26/02/2012 12:00 10,6 C 76 % 1025,8 hPa 0,0 mm 9,4 km/h (2 Bft) NE 45 2 min 0 W/m 6,5 C 10,6 C 10,1 km/h (2 Bft)
26/02/2012 12:10 10,5 C 75 % 1025,7 hPa 0,0 mm 4,3 km/h (1 Bft) N 360 2 min 0 W/m 6,3 C 10,5 C 9,0 km/h (2 Bft)
26/02/2012 12:20 10,3 C 75 % 1025,8 hPa 0,0 mm 4,7 km/h (1 Bft) E 90 2 min 0 W/m 6,1 C 10,3 C 7,9 km/h (2 Bft)
26/02/2012 12:30 10,8 C 74 % 1025,9 hPa 0,0 mm 7,6 km/h (2 Bft) NE 45 2 min 0 W/m 6,4 C 10,8 C 11,9 km/h (2 Bft)
26/02/2012 12:40 10,6 C 73 % 1025,8 hPa 0,0 mm 8,3 km/h (2 Bft) NE 45 2 min 0 W/m 6,0 C 10,6 C 12,2 km/h (2 Bft)
26/02/2012 12:50 10,8 C 74 % 1025,8 hPa 0,0 mm 7,9 km/h (2 Bft) NE 45 2 min 0 W/m 6,4 C 10,8 C 13,0 km/h (3 Bft)
26/02/2012 13:00 11,4 C 73 % 1025,7 hPa 0,0 mm 7,9 km/h (2 Bft) N 360 2 min 0 W/m 6,7 C 11,4 C 7,9 km/h (2 Bft)
26/02/2012 13:10 11,9 C 71 % 1025,8 hPa 0,0 mm 4,7 km/h (1 Bft) N-NE 22 2 min 0 W/m 6,8 C 11,9 C 10,4 km/h (2 Bft)
26/02/2012 13:20 11,7 C 71 % 1025,7 hPa 0,0 mm 4,3 km/h (1 Bft) E-NE 67 2 min 0 W/m 6,6 C 11,7 C 7,9 km/h (2 Bft)
26/02/2012 13:30 11,5 C 70 % 1025,7 hPa 0,0 mm 11,5 km/h (2 Bft) N-NE 22 2 min 0 W/m 6,2 C 11,5 C 15,1 km/h (3 Bft)
26/02/2012 13:40 11,1 C 71 % 1025,6 hPa 0,0 mm 5,0 km/h (1 Bft) NE 45 2 min 0 W/m 6,0 C 11,1 C 10,1 km/h (2 Bft)
26/02/2012 13:50 10,9 C 71 % 1025,6 hPa 0,0 mm 8,6 km/h (2 Bft) NE 45 2 min 0 W/m 5,9 C 10,9 C 8,6 km/h (2 Bft)
26/02/2012 14:00 10,8 C 71 % 1025,6 hPa 0,0 mm 3,2 km/h (1 Bft) N-NE 22 2 min 0 W/m 5,8 C 10,8 C 7,6 km/h (2 Bft)
26/02/2012 14:10 10,8 C 70 % 1025,6 hPa 0,0 mm 8,3 km/h (2 Bft) N 360 2 min 0 W/m 5,6 C 10,8 C 11,5 km/h (2 Bft)
26/02/2012 14:20 10,6 C 71 % 1025,5 hPa 0,0 mm 3,6 km/h (1 Bft) N-NE 22 2 min 0 W/m 5,6 C 10,6 C 7,2 km/h (2 Bft)
26/02/2012 14:30 10,5 C 72 % 1025,4 hPa 0,0 mm 8,6 km/h (2 Bft) N-NE 22 2 min 0 W/m 5,7 C 10,5 C 9,4 km/h (2 Bft)
26/02/2012 14:40 10,5 C 72 % 1025,5 hPa 0,0 mm 2,9 km/h (1 Bft) NE 45 2 min 0 W/m 5,7 C 10,5 C 2,9 km/h (1 Bft)
26/02/2012 14:50 10,4 C 71 % 1025,5 hPa 0,0 mm 7,2 km/h (2 Bft) N 360 2 min 0 W/m 5,4 C 10,4 C 12,6 km/h (3 Bft)
26/02/2012 15:00 10,3 C 71 % 1025,5 hPa 0,0 mm 9,7 km/h (2 Bft) N 360 2 min 0 W/m 5,3 C 10,3 C 12,6 km/h (3 Bft)
26/02/2012 15:10 10,1 C 70 % 1025,6 hPa 0,0 mm 8,6 km/h (2 Bft) NE 45 2 min 0 W/m 4,9 C 10,1 C 8,6 km/h (2 Bft)
26/02/2012 15:20 10,1 C 71 % 1025,4 hPa 0,0 mm 9,7 km/h (2 Bft) N-NE 22 2 min 0 W/m 5,1 C 10,1 C 16,6 km/h (3 Bft)
26/02/2012 15:30 10,3 C 71 % 1025,3 hPa 0,0 mm 6,5 km/h (2 Bft) N-NE 22 2 min 0 W/m 5,3 C 10,3 C 7,2 km/h (2 Bft)
26/02/2012 15:40 10,2 C 70 % 1025,2 hPa 0,0 mm 5,8 km/h (2 Bft) NE 45 2 min 0 W/m 5,0 C 10,2 C 10,8 km/h (2 Bft)
26/02/2012 15:50 10,3 C 70 % 1025,1 hPa 0,0 mm 6,5 km/h (2 Bft) NE 45 2 min 0 W/m 5,1 C 10,3 C 7,9 km/h (2 Bft)
26/02/2012 16:00 10,3 C 70 % 1025,1 hPa 0,0 mm 6,8 km/h (2 Bft) N-NE 22 2 min 0 W/m 5,1 C 10,3 C 9,7 km/h (2 Bft)
26/02/2012 16:10 10,2 C 70 % 1025,1 hPa 0,0 mm 6,8 km/h (2 Bft) NE 45 2 min 0 W/m 5,0 C 10,2 C 15,8 km/h (3 Bft)
26/02/2012 16:20 10,1 C 70 % 1025,1 hPa 0,0 mm 6,1 km/h (2 Bft) NE 45 2 min 0 W/m 4,9 C 10,1 C 7,2 km/h (2 Bft)
26/02/2012 16:30 10,2 C 71 % 1025,1 hPa 0,0 mm 2,9 km/h (1 Bft) N-NE 22 2 min 0 W/m 5,2 C 10,2 C 5,8 km/h (2 Bft)
26/02/2012 16:40 10,1 C 69 % 1025,1 hPa 0,0 mm 7,6 km/h (2 Bft) N 360 2 min 0 W/m 4,7 C 10,1 C 7,9 km/h (2 Bft)
26/02/2012 16:50 10,1 C 69 % 1025,2 hPa 0,0 mm 7,6 km/h (2 Bft) N-NE 22 2 min 0 W/m 4,7 C 10,1 C 9,4 km/h (2 Bft)
26/02/2012 17:00 10,2 C 70 % 1025,2 hPa 0,0 mm 8,3 km/h (2 Bft) N-NE 22 2 min 0 W/m 5,0 C 10,2 C 15,5 km/h (3 Bft)
26/02/2012 17:10 10,1 C 69 % 1025,3 hPa 0,0 mm 4,3 km/h (1 Bft) N-NE 22 2 min 0 W/m 4,7 C 10,1 C 7,9 km/h (2 Bft)
26/02/2012 17:20 9,9 C 69 % 1025,2 hPa 0,0 mm 6,5 km/h (2 Bft) NE 45 2 min 0 W/m 4,5 C 9,2 C 13,3 km/h (3 Bft)
26/02/2012 17:30 9,8 C 69 % 1025,2 hPa 0,0 mm 5,0 km/h (1 Bft) E-NE 67 2 min 0 W/m 4,4 C 9,5 C 8,6 km/h (2 Bft)
26/02/2012 17:40 9,6 C 69 % 1025,3 hPa 0,0 mm 4,3 km/h (1 Bft) NE 45 2 min 0 W/m 4,2 C 9,6 C 4,3 km/h (1 Bft)
26/02/2012 17:50 9,4 C 69 % 1025,2 hPa 0,0 mm 2,5 km/h (1 Bft) N-NE 22 2 min 0 W/m 4,0 C 9,4 C 4,0 km/h (1 Bft)
26/02/2012 18:00 9,4 C 69 % 1025,2 hPa 0,0 mm 7,2 km/h (2 Bft) N-NE 22 2 min 0 W/m 4,0 C 8,5 C 13,0 km/h (3 Bft)
26/02/2012 18:10 9,2 C 69 % 1025,3 hPa 0,0 mm 4,3 km/h (1 Bft) NE 45 2 min 0 W/m 3,8 C 9,2 C 8,3 km/h (2 Bft)
26/02/2012 18:20 8,9 C 68 % 1025,4 hPa 0,0 mm 6,1 km/h (2 Bft) N 360 2 min 0 W/m 3,3 C 8,2 C 8,3 km/h (2 Bft)
26/02/2012 18:30 8,6 C 69 % 1025,4 hPa 0,0 mm 2,5 km/h (1 Bft) N-NE 22 0 min 0 W/m 3,2 C 8,6 C 4,0 km/h (1 Bft)
26/02/2012 18:40 8,3 C 70 % 1025,6 hPa 0,0 mm 2,2 km/h (1 Bft) N-NE 22 0 min 0 W/m 3,2 C 8,3 C 8,6 km/h (2 Bft)
26/02/2012 18:50 7,9 C 71 % 1025,6 hPa 0,0 mm 0,7 km/h (0 Bft) NE 45 0 min 0 W/m 3,0 C 7,9 C 3,2 km/h (1 Bft)
26/02/2012 19:00 7,5 C 72 % 1025,7 hPa 0,0 mm 0,0 km/h (0 Bft) NE 45 0 min 0 W/m 2,8 C 7,5 C 0,0 km/h (0 Bft)
26/02/2012 19:10 7,1 C 72 % 1025,7 hPa 0,0 mm 0,0 km/h (0 Bft) NE 45 0 min 0 W/m 2,4 C 7,1 C 0,0 km/h (0 Bft)
26/02/2012 19:20 6,8 C 72 % 1025,9 hPa 0,0 mm 0,0 km/h (0 Bft) NE 45 0 min 0 W/m 2,1 C 6,8 C 0,0 km/h (0 Bft)
26/02/2012 19:30 6,4 C 73 % 1026,0 hPa 0,0 mm 0,0 km/h (0 Bft) NE 45 0 min 0 W/m 1,9 C 6,4 C 0,0 km/h (0 Bft)
26/02/2012 19:40 6,1 C 75 % 1026,0 hPa 0,0 mm 2,5 km/h (1 Bft) N-NE 22 0 min 0 W/m 2,0 C 6,1 C 4,0 km/h (1 Bft)
26/02/2012 19:50 6,0 C 75 % 1026,0 hPa 0,0 mm 0,7 km/h (0 Bft) NE 45 0 min 0 W/m 1,9 C 6,0 C 0,7 km/h (0 Bft)
26/02/2012 20:00 5,9 C 76 % 1026,1 hPa 0,0 mm 2,5 km/h (1 Bft) N-NE 22 0 min 0 W/m 2,0 C 5,9 C 3,2 km/h (1 Bft)
26/02/2012 20:10 5,8 C 76 % 1026,1 hPa 0,0 mm 2,5 km/h (1 Bft) N-NE 22 0 min 0 W/m 1,9 C 5,8 C 4,3 km/h (1 Bft)
26/02/2012 20:20 5,7 C 76 % 1026,2 hPa 0,0 mm 1,1 km/h (1 Bft) NE 45 0 min 0 W/m 1,8 C 5,7 C 1,1 km/h (1 Bft)
26/02/2012 20:30 5,6 C 76 % 1026,2 hPa 0,0 mm 0,7 km/h (0 Bft) N-NE 22 0 min 0 W/m 1,7 C 5,6 C 0,7 km/h (0 Bft)
26/02/2012 20:40 5,3 C 76 % 1026,3 hPa 0,0 mm 0,0 km/h (0 Bft) NE 45 0 min 0 W/m 1,4 C 5,3 C 0,0 km/h (0 Bft)
26/02/2012 20:50 5,1 C 77 % 1026,4 hPa 0,0 mm 0,4 km/h (0 Bft) N-NE 22 0 min 0 W/m 1,4 C 5,1 C 0,4 km/h (0 Bft)
26/02/2012 21:00 4,8 C 77 % 1026,5 hPa 0,0 mm 0,0 km/h (0 Bft) NE 45 0 min 0 W/m 1,1 C 4,8 C 0,0 km/h (0 Bft)
26/02/2012 21:10 4,4 C 77 % 1026,5 hPa 0,0 mm 0,4 km/h (0 Bft) NE 45 0 min 0 W/m 0,7 C 4,4 C 3,6 km/h (1 Bft)
26/02/2012 21:20 4,3 C 78 % 1026,5 hPa 0,0 mm 0,0 km/h (0 Bft) NE 45 0 min 0 W/m 0,8 C 4,3 C 0,0 km/h (0 Bft)
26/02/2012 21:30 4,2 C 79 % 1026,6 hPa 0,0 mm 0,0 km/h (0 Bft) E-NE 67 0 min 0 W/m 0,9 C 4,2 C 0,0 km/h (0 Bft)
26/02/2012 21:40 4,1 C 79 % 1026,6 hPa 0,0 mm 0,0 km/h (0 Bft) E-NE 67 0 min 0 W/m 0,8 C 4,1 C 0,0 km/h (0 Bft)
26/02/2012 21:50 4,1 C 79 % 1026,6 hPa 0,0 mm 0,0 km/h (0 Bft) NE 45 0 min 0 W/m 0,8 C 4,1 C 0,0 km/h (0 Bft)
26/02/2012 22:00 3,9 C 80 % 1026,8 hPa 0,0 mm 0,0 km/h (0 Bft) NE 45 0 min 0 W/m 0,8 C 3,9 C 0,0 km/h (0 Bft)
26/02/2012 22:10 3,8 C 80 % 1026,7 hPa 0,0 mm 0,0 km/h (0 Bft) E-NE 67 0 min 0 W/m 0,7 C 3,8 C 0,0 km/h (0 Bft)
26/02/2012 22:20 3,6 C 80 % 1026,8 hPa 0,0 mm 0,0 km/h (0 Bft) NE 45 0 min 0 W/m 0,5 C 3,6 C 0,0 km/h (0 Bft)
26/02/2012 22:30 3,6 C 81 % 1026,9 hPa 0,0 mm 0,0 km/h (0 Bft) NE 45 0 min 0 W/m 0,7 C 3,6 C 0,0 km/h (0 Bft)
_ Min-Heure 22:30 18:20 05:20 - 22:30 - - - - 22:20 22:30 22:30
Minimum _ 3,6 C 68 % 1023,2 hPa - 0,0 km/h (0 Bft) - - - - 0,5 C 3,6 C 0,0 km/h (0 Bft)
_ Max-Heure 13:10 09:00 22:30 22:30 10:10 - - 18:20 22:30 00:40 13:10 15:20
Maximum _ 11,9 C 92 % 1026,9 hPa 0,0 mm 11,9 km/h
NE (2 Bft)
- - 2 min 0 W/m 7,2 C 11,9 C 16,6 km/h
N-NE (3 Bft)
Moyenne _ 8,4 C 82 % 1024,8 hPa #0,0 mm 4,1 km/h (1 Bft) N-NE - #2:06 h 0 W/m 5,3 C 8,2 C 6,4 km/h (2 Bft)
Saint Bonnet de Bellac- Haute Vienne - France